Regional Weather Roundup
Issued by NWS

Home | Current Version | Previous Version | Text Only | Print | Product List | Glossary On
Versions: 1 2 3 4 5 6 7 8 9 10 11 12 13 14 15 16 17 18 19 20 21 22 23 24 25 26 27 28 29 30 31 32 33 34 35 36 37 38 39 40 41 42 43 44 45 46 47 48 49 50
000
ASUS46 KLOX 011813
RWRCA

SOUTHERN CALIFORNIA WEATHER ROUNDUP
NATIONAL WEATHER SERVICE OXNARD CALIFORNIA
1100 AM PDT SAT AUG 01 2015

NOTE: "FAIR" INDICATES FEW OR NO CLOUDS BELOW 12,000 FEET WITH NO
SIGNIFICANT WEATHER AND/OR OBSTRUCTIONS TO VISIBILITY.

  -  STATIONS PRECEEDED BY AN ASTERISK (*) ARE NOT NWS OR FAA
     STATIONS AND ARE NOT SUBJECT TO NWS AND FAA QUALITY CONTROL.

CAZ041-042-087-011900-
LA AND ORANGE COUNTY COASTAL AREAS


CITY           SKY/WX    TMP DP  RH WIND       PRES   REMARKS
L.A. DOWNTOWN  SUNNY     80  63  55 CALM      29.96F
L.A. AIRPORT   MOSUNNY   73  63  70 W8        29.98S
LONG BEACH     SUNNY     76  63  64 SW8       29.97F

CITY           SKY/WX    TMP DP  RH WIND       PRES   REMARKS
AVALON           N/A     73 N/A N/A N3          N/A
FULLERTON      SUNNY     79  62  56 VRB3      29.96F
*GETTY CENTER    N/A     72  63  73 S5G10       N/A
HAWTHORNE      SUNNY     77  62  59 W8        29.98S
*LOS ALAMITOS  MOSUNNY   76  65  67 VRB6      29.97F
*REDONDO BEACH   N/A     76  63  63 SW5       29.98F
SANTA ANA      MOSUNNY   77  63  61 VRB5      29.97F
STA MONICA APT MOSUNNY   74  64  71 VRB6      29.98F
TORRANCE       SUNNY     77  64  65 NW12      29.98F

$$

CAZ547-548-048-011900-
LA COUNTY VALLEYS AND INLAND EMPIRE


CITY           SKY/WX    TMP DP  RH WIND       PRES   REMARKS
BURBANK        SUNNY     77  62  59 SE8       29.97F
VAN NUYS       SUNNY     77  62  59 W3        29.98F

CITY           SKY/WX    TMP DP  RH WIND       PRES   REMARKS
CORONA AIRPORT CLEAR     78  65  64 SW6       29.97F
CHINO          MOSUNNY   82  65  56 VRB5      29.98F
MARCH AFB      SUNNY     84  60  44 NW7       29.98F
*NORTHRIDGE      N/A    N/A N/A N/A SE3         N/A
ONTARIO        MOSUNNY   80  62  54 VRB3      29.97F
*PASADENA        N/A     77  68  73 CALM        N/A
RIVERSIDE      SUNNY     79  63  57 VRB5      29.97F
SAN BERNARDINO NOT AVBL
*WHITEMAN AP   SUNNY     75  63  64 E5        30.02F
*WOODLAND HILL   N/A     77  63  61 N3          N/A

$$

CAZ054-055-011900-
LA AND SAN BERNARDINO COUNTY MOUNTAINS


CITY           SKY/WX    TMP DP  RH WIND       PRES   REMARKS
*BIG BEAR AIRP CLEAR     73  37  27 E9        30.32S
SANDBERG       SUNNY     85  32  15 SW7G17    30.18F

$$

CAZ028-029-059-060-099-011900-
ANTELOPE VALLEY AND SURROUNDING AREAS


CITY           SKY/WX    TMP DP  RH WIND       PRES   REMARKS
LANCASTER      SUNNY     94  35  12 VRB5      30.01F
PALMDALE       SUNNY     90  31  12 CALM      30.03F

CITY           SKY/WX    TMP DP  RH WIND       PRES   REMARKS
29 PALMS       MOSUNNY   94  49  21 SE7       30.05F HX  90
BARSTOW/DAGGET SUNNY     95  29   9 W13       29.98F
BISHOP         SUNNY     89  46  22 E6        30.10F
CHINA LAKE     SUNNY     95  44  17 SW7       29.98F HX  91
EDWARDS AFB    MOSUNNY   92  34  13 SW6       29.99F
MOJAVE         SUNNY     91  32  12 SW12      30.04F
NEEDLES        CLOUDY    90  61  37 E15       29.97R HX  90
VICTORVILLE    SUNNY     90  34  13 CALM      30.05F

$$

CAZ039-040-011900-
VENTURA AND SANTA BARBARA COUNTY COAST


CITY           SKY/WX    TMP DP  RH WIND       PRES   REMARKS
CAMARILLO      CLOUDY    75  64  68 W6        29.97F
OXNARD AIRPORT CLOUDY    72  63  73 SW9       29.98S
*POINT MUGU    CLOUDY    71  65  81 S9        29.98S
SBA APT/GOLETA PTSUNNY   72  63  73 S8        29.98F
*SANTA BARBARA   N/A     74  62  68 W3        30.06S
*VENTURA         N/A     73  64  74 W3        29.59S

$$

CAZ044-045-011900-
VENTURA COUNTY VALLEYS


CITY           SKY/WX    TMP DP  RH WIND       PRES   REMARKS
*SIMI VALLEY     N/A     79  66  64 CALM      29.91F
*OJAI            N/A     84  65  51 CALM      29.89F
*FILLMORE        N/A     73  67  83 CALM      29.87

$$

CAZ053-011900-
VENTURA COUNTY MOUNTAINS


CITY           SKY/WX    TMP DP  RH WIND       PRES   REMARKS

$$

CAZ034-035-036-011900-
CENTRAL COAST AND SANTA YNEZ VALLEY


CITY           SKY/WX    TMP DP  RH WIND       PRES   REMARKS
SAN LUIS OBISP SUNNY     72  58  61 NW15      29.99F
SANTA MARIA    MOSUNNY   69  60  73 W8        30.00F

CITY           SKY/WX    TMP DP  RH WIND       PRES   REMARKS
*CAL POLY SLO    N/A     72  63  73 W6          N/A
*LOMPOC        CLOUDY    70  55  60 W13       30.02S
*PISMO BEACH     N/A     67  62  84 SW3       30.00F
*SANTA YNEZ    FAIR      73  57  56 W9        29.99F

$$

CAZ037-038-051-011900-
SAN LUIS OBISPO COUNTY INTERIOR AND CUYAMA VALLEY


CITY           SKY/WX    TMP DP  RH WIND       PRES   REMARKS
*CUYAMA          N/A     85  51  30 S3        29.88F
PASO ROBLES    SUNNY     79  53  40 W5        29.99F

$$

CAZ032-033-061-011900-
SOUTHERN DESERTS


CITY           SKY/WX    TMP DP  RH WIND       PRES   REMARKS
BLYTHE         PTSUNNY   98  61  29 NE8       29.89S HX  98
IMPERIAL       MOSUNNY  100  57  23 CALM      29.83F HX  99
PALM SPRINGS   SUNNY    100  48  17 SE8       29.88F HX  96
THERMAL        SUNNY    102  48  16 VRB5      29.82F HX  98

$$

ELSEWHERE ACROSS THE WESTERN UNITED STATES AND MEXICO


CITY           SKY/WX    TMP DP  RH WIND       PRES   REMARKS
DENVER, CO     MOSUNNY   87  48  25 VRB3      30.16F
GRAND CANYON,  CLOUDY    67  58  72 SE5       30.36S
HONOLULU, HI   PTSUNNY   81  70  69 NE7       29.97R
KAHULUI, MAUI  MOSUNNY   81  70  69 NE16      29.98R
LAKE TAHOE, CA PTSUNNY   77  48  35 NE7       30.29F
LAS VEGAS, NV  CLOUDY    87  58  37 S18G31    29.98R
MAMMOTH LAKES, FAIR      79  41  25 E9        30.34F
MEXICO CITY, M PTSUNNY   70  46  43 SE6       30.33F
PHOENIX, AZ    MOSUNNY   94  68  42 VRB7      29.91F HX  98
PORTLAND, OR   MOSUNNY   77  50  38 W9        29.95F
RENO, NV       PTSUNNY   84  40  21 CALM      30.14F
SALT LAKE CITY PTSUNNY   88  33  14 W3        30.12F
SAN DIEGO, CA  CLOUDY    74  62  66 VRB6      29.99F
SAN FRANCISCO, MOSUNNY   70  57  63 W13       30.02F
SAN JOSE, CA   MOSUNNY   72  58  61 CALM      30.01F
SEATTLE, WA    MOSUNNY   76  51  41 NW6       30.02S
TIJUANA, MEX   CLOUDY    72  61  68 W6        30.01S

$$

STATION/POSITION TIME  TEMP    WIND        PRES    VSBY  WAVE
                       AIR SEA DIR/SP/G                  HT/PER
                 (UTC) (F)     (DEG/KT/KT) (MB)    (MI)  (FT/S)
POINT ARGUELLO B NOT AVBL
WEST SANTA BARBA 1750   63 66  320/ 19/ 21 1014.5F         4/14
POINT CONCEPTION NOT AVBL
EAST SANTA BARBA 1800   65 69  210/  4/  4 1015.9F
SANTA MONICA BAY 1750   70 74  150/  2/  4 1015.0F         2/14



USA.gov is the U.S. government's official web portal to all federal, state and local government web resources and services.